EW9154 Weather Reports


time (UTC)temp
C
wind
direction
speed
KPH
gust
KPH
rain 1hr
cm
rain 24hr
cm
rain mn
cm
humidity
%
barometer
mb
20260901161026 27 227 0.0 0.0 0.00 0.00 0.00 56 1028.6
20260901160518 27 229 0.0 0.0 0.00 0.00 0.00 59 1028.6
20260901160014 27 228 0.0 0.0 0.00 0.00 0.00 58 1028.5
20260901155743 27 228 0.0 0.0 0.00 0.00 0.00 60 1028.4
20260901154944 27 228 0.0 0.0 0.00 0.00 0.00 61 1028.5
20260901154713 27 235 0.0 0.0 0.00 0.00 0.00 61 1028.4
20260901153914 26 235 0.0 0.0 0.00 0.00 0.00 63 1028.3
20260901153404 26 235 0.0 0.0 0.00 0.00 0.00 65 1028.4
20260901152900 26 235 0.0 0.0 0.00 0.00 0.00 65 1028.4
20260901152358 25 235 0.0 0.0 0.00 0.00 0.00 66 1028.6
20260901151857 25 235 0.0 0.0 0.00 0.00 0.00 68 1028.5
20260901151352 25 229 0.0 0.0 0.00 0.00 0.00 69 1028.5
20260901150848 25 225 0.0 0.0 0.00 0.00 0.00 70 1028.4
20260901150341 25 225 0.0 0.0 0.00 0.00 0.00 70 1028.6
20260901145837 24 259 0.0 0.0 0.00 0.00 0.00 72 1028.6
20260901145335 24 259 0.0 0.0 0.00 0.00 0.00 74 1028.6
20260901144806 23 265 0.0 0.0 0.00 0.00 0.00 75 1028.8
20260901144240 23 265 0.0 0.0 0.00 0.00 0.00 77 1028.7
20260901143714 23 266 0.0 1.6 0.00 0.00 0.00 77 1028.8
20260901143443 22 266 0.0 1.6 0.00 0.00 0.00 77 1028.8
20260901142710 22 199 0.0 0.0 0.00 0.00 0.00 80 1028.8
20260901142700 22 199 0.0 0.0 0.00 0.00 0.00 80 1028.7
20260901141701 22 221 0.0 0.0 0.00 0.00 0.00 80 1028.7
20260901141132 21 220 0.0 0.0 0.00 0.00 0.00 82 1028.9
20260901140859 21 213 0.0 0.0 0.00 0.00 0.00 82 1028.8
20260901140118 21 213 0.0 0.0 0.00 0.00 0.00 84 1028.9
20260901135550 20 209 0.0 0.0 0.00 0.00 0.00 84 1028.8
20260901135046 20 227 0.0 0.0 0.00 0.00 0.00 86 1028.8
20260901134522 20 230 0.0 0.0 0.00 0.00 0.00 87 1028.9
20260901134016 20 230 0.0 0.0 0.00 0.00 0.00 88 1029.0
20260901133515 19 231 0.0 0.0 0.00 0.00 0.00 89 1029.0
20260901133245 19 232 0.0 0.0 0.00 0.00 0.00 90 1029.0
20260901132511 19 228 0.0 0.0 0.00 0.00 0.00 90 1029.0
20260901132011 19 228 0.0 0.0 0.00 0.00 0.00 90 1029.0
20260901131736 18 228 0.0 0.0 0.00 0.00 0.00 91 1028.9
20260901131236 18 228 0.0 0.0 0.00 0.00 0.00 91 1028.8
20260901130447 18 228 0.0 0.0 0.00 0.00 0.00 91 1028.8
20260901125951 18 229 0.0 0.0 0.00 0.00 0.00 91 1028.7
20260901125422 18 229 0.0 0.0 0.00 0.00 0.00 91 1028.6
20260901124921 18 229 0.0 0.0 0.00 0.00 0.00 91 1028.7
20260901124559 18 229 0.0 0.0 0.00 0.00 0.00 91 1028.5
20260901124445 18 229 0.0 0.0 0.00 0.00 0.00 91 1028.6
20260901123325 18 229 0.0 0.0 0.00 0.00 0.00 91 1028.5
20260901123042 18 229 0.0 0.0 0.00 0.00 0.00 91 1028.5
20260901122308 18 229 0.0 0.0 0.00 0.00 0.00 91 1028.5
20260901121806 18 229 0.0 0.0 0.00 0.00 0.00 91 1028.5
20260901121238 18 229 0.0 0.0 0.00 0.00 0.00 91 1028.4
20260901121006 18 229 0.0 0.0 0.00 0.00 0.00 91 1028.4
20260901120211 18 229 0.0 0.0 0.00 0.00 0.00 91 1028.3
20260901115659 18 229 0.0 0.0 0.00 0.00 0.00 91 1028.3
20260901115157 18 229 0.0 0.0 0.00 0.00 0.00 91 1028.2
20260901114629 18 229 0.0 0.0 0.00 0.00 0.00 90 1028.1
20260901114102 18 229 0.0 0.0 0.00 0.00 0.00 90 1028.1
20260901113532 18 229 0.0 0.0 0.00 0.00 0.00 91 1028.0
20260901113008 18 229 0.0 0.0 0.00 0.00 0.00 91 1028.0
20260901112508 18 229 0.0 0.0 0.00 0.00 0.00 91 1027.9
20260901112240 18 229 0.0 0.0 0.00 0.00 0.00 91 1027.7
20260901111442 18 229 0.0 0.0 0.00 0.00 0.00 91 1027.6
20260901110940 18 229 0.0 0.0 0.00 0.00 0.00 91 1027.4
20260901110415 18 229 0.0 0.0 0.00 0.00 0.00 91 1027.4
20260901105853 18 229 0.0 0.0 0.00 0.00 0.00 91 1027.4
20260901105629 18 229 0.0 0.0 0.00 0.00 0.00 91 1027.5
20260901104831 18 229 0.0 0.0 0.00 0.00 0.00 91 1027.5
20260901104302 18 230 0.0 0.0 0.00 0.00 0.00 91 1027.5
20260901104030 18 230 0.0 0.0 0.00 0.00 0.00 91 1027.6
20260901103229 18 230 0.0 0.0 0.00 0.00 0.00 91 1027.6
20260901102702 18 230 0.0 0.0 0.00 0.00 0.00 91 1027.4
20260901102419 18 235 0.0 0.0 0.00 0.00 0.00 92 1027.5
20260901101647 18 235 0.0 0.0 0.00 0.00 0.00 92 1027.4
20260901101125 18 235 0.0 0.0 0.00 0.00 0.00 92 1027.3
20260901100623 18 235 0.0 0.0 0.00 0.00 0.00 91 1027.3
20260901100356 18 235 0.0 0.0 0.00 0.00 0.00 91 1027.3
20260901095624 18 235 0.0 0.0 0.00 0.00 0.00 91 1027.3
20260901095125 18 235 0.0 0.0 0.00 0.00 0.00 91 1027.4
20260901094605 18 235 0.0 0.0 0.00 0.00 0.00 91 1027.3
20260901094104 18 235 0.0 0.0 0.00 0.00 0.00 91 1027.4
20260901093529 18 235 0.0 0.0 0.00 0.00 0.00 91 1027.3
20260901093028 18 235 0.0 0.0 0.00 0.00 0.00 90 1027.3
20260901092515 18 235 0.0 0.0 0.00 0.00 0.00 90 1027.3
20260901092014 19 235 0.0 0.0 0.00 0.00 0.00 90 1027.3
20260901091449 19 235 0.0 0.0 0.00 0.00 0.00 90 1027.3
20260901090927 19 235 0.0 0.0 0.00 0.00 0.00 90 1027.2
20260901090426 19 235 0.0 0.0 0.00 0.00 0.00 90 1027.0
20260901085914 19 235 0.0 0.0 0.00 0.00 0.00 90 1027.2
20260901085413 19 235 0.0 0.0 0.00 0.00 0.00 90 1027.3
20260901084915 19 235 0.0 0.0 0.00 0.00 0.00 90 1027.2
20260901084404 19 235 0.0 0.0 0.00 0.00 0.00 90 1027.3
20260901083905 19 235 0.0 0.0 0.00 0.00 0.00 90 1027.4
20260901083349 19 235 0.0 0.0 0.00 0.00 0.00 90 1027.3
20260901082852 19 235 0.0 0.0 0.00 0.00 0.00 90 1027.3
20260901082339 19 235 0.0 0.0 0.00 0.00 0.00 89 1027.3
20260901081821 20 235 0.0 0.0 0.00 0.00 0.00 89 1027.2
20260901081553 20 235 0.0 0.0 0.00 0.00 0.00 89 1027.2
20260901080802 20 235 0.0 0.0 0.00 0.00 0.00 89 1027.3
20260901080258 20 235 0.0 0.0 0.00 0.00 0.00 89 1027.3
20260901075801 20 235 0.0 0.0 0.00 0.00 0.00 88 1027.3
20260901075238 20 235 0.0 0.0 0.00 0.00 0.00 88 1027.3
20260901074739 20 235 0.0 0.0 0.00 0.00 0.00 88 1027.2
20260901074220 20 235 0.0 0.0 0.00 0.00 0.00 88 1027.2
20260901073721 20 235 0.0 0.0 0.00 0.00 0.00 87 1027.3
20260901073221 20 235 0.0 0.0 0.00 0.00 0.00 86 1027.3
20260901072659 20 235 0.0 0.0 0.00 0.00 0.00 86 1027.3
20260901072200 20 235 0.0 0.0 0.00 0.00 0.00 86 1027.4
20260901071639 20 235 0.0 0.0 0.00 0.00 0.00 86 1027.4
20260901071126 20 235 0.0 0.0 0.00 0.00 0.00 86 1027.5
20260901070623 20 235 0.0 0.0 0.00 0.00 0.00 86 1027.7
20260901070059 20 235 0.0 0.0 0.00 0.00 0.00 86 1027.7
20260901065535 20 235 0.0 0.0 0.00 0.00 0.00 86 1027.7
20260901065021 20 235 0.0 0.0 0.00 0.00 0.00 86 1027.7
20260901064524 20 235 0.0 0.0 0.00 0.00 0.00 86 1027.7
20260901064008 20 235 0.0 0.0 0.00 0.00 0.00 86 1027.9
20260901063504 20 235 0.0 0.0 0.00 0.00 0.00 86 1027.8
20260901063004 20 235 0.0 0.0 0.00 0.00 0.00 86 1027.9
20260901062726 20 235 0.0 0.0 0.00 0.00 0.00 86 1027.9
20260901062226 20 235 0.0 0.0 0.00 0.00 0.00 86 1027.9
20260901061725 21 235 0.0 0.0 0.00 0.00 0.00 86 1027.9
20260901060942 21 235 0.0 0.0 0.00 0.00 0.00 85 1027.9
20260901060413 21 235 0.0 0.0 0.00 0.00 0.00 85 1027.8
20260901055850 21 235 0.0 0.0 0.00 0.00 0.00 84 1027.8
20260901055331 21 235 0.0 0.0 0.00 0.00 0.00 84 1027.8
20260901054828 21 235 0.0 0.0 0.00 0.00 0.00 83 1027.7
20260901054318 21 234 0.0 0.0 0.00 0.00 0.00 83 1027.7
20260901053818 21 235 0.0 0.0 0.00 0.00 0.00 82 1027.5
20260901053320 21 235 0.0 0.0 0.00 0.00 0.00 82 1027.4
20260901053046 22 235 0.0 0.0 0.00 0.00 0.00 81 1027.5
20260901052314 22 235 0.0 0.0 0.00 0.00 0.00 80 1027.4
20260901051810 22 235 0.0 0.0 0.00 0.00 0.00 79 1027.4
20260901051245 22 235 0.0 0.0 0.00 0.00 0.00 78 1027.3
20260901050733 22 235 0.0 0.0 0.00 0.00 0.00 78 1027.3
20260901050229 22 235 0.0 0.0 0.00 0.00 0.00 77 1027.2
20260901045957 22 235 0.0 0.0 0.00 0.00 0.00 77 1027.0
20260901045207 22 235 0.0 0.0 0.00 0.00 0.00 77 1027.0
20260901044937 22 235 0.0 0.0 0.00 0.00 0.00 77 1026.9
20260901044210 22 235 0.0 0.0 0.00 0.00 0.00 76 1026.8
20260901043704 22 235 0.0 0.0 0.00 0.00 0.00 75 1026.7
20260901043154 22 235 0.0 0.0 0.00 0.00 0.00 75 1026.7
20260901042652 23 235 0.0 0.0 0.00 0.00 0.00 75 1026.7
20260901042155 23 235 0.0 0.0 0.00 0.00 0.00 75 1026.6
20260901041629 23 235 0.0 0.0 0.00 0.00 0.00 75 1026.6
20260901041122 23 235 0.0 0.0 0.00 0.00 0.00 75 1026.7
20260901040625 23 235 0.0 0.0 0.00 0.00 0.00 75 1026.8
20260901040058 23 235 0.0 0.0 0.00 0.00 0.00 75 1026.8
20260901035534 23 235 0.0 0.0 0.00 0.00 0.00 75 1026.9
20260901035023 23 235 0.0 0.0 0.00 0.00 0.00 75 1026.9
20260901034519 23 235 0.0 0.0 0.00 0.00 0.00 76 1027.0
20260901034017 23 235 0.0 0.0 0.00 0.00 0.00 76 1027.0
20260901033516 23 235 0.0 0.0 0.00 0.00 0.00 76 1027.0
20260901033010 23 235 0.0 0.0 0.00 0.00 0.00 76 1027.2
20260901032445 23 235 0.0 0.0 0.00 0.00 0.00 76 1027.0
20260901031942 23 235 0.0 0.0 0.00 0.00 0.00 76 1026.8
20260901031418 23 235 0.0 0.0 0.00 0.00 0.00 76 1026.8
20260901030852 23 235 0.0 0.0 0.00 0.00 0.00 76 1026.9
20260901030346 23 235 0.0 0.0 0.00 0.00 0.00 75 1026.8
20260901030323 23 235 0.0 0.0 0.00 0.00 0.00 75 1026.8
20260901025534 23 235 0.0 0.0 0.00 0.00 0.00 75 1026.8
20260901024759 23 234 0.0 0.0 0.00 0.00 0.00 74 1026.8
20260901024258 23 235 0.0 0.0 0.00 0.00 0.00 74 1026.6
20260901023753 23 234 0.0 0.0 0.00 0.00 0.00 74 1026.7
20260901023246 24 235 0.0 0.0 0.00 0.00 0.00 74 1026.7
20260901022720 24 235 0.0 0.0 0.00 0.00 0.00 73 1026.7
20260901022211 24 235 0.0 0.0 0.00 0.00 0.00 73 1026.6
20260901021708 24 238 0.0 0.0 0.00 0.00 0.00 73 1026.5
20260901021152 25 238 0.0 0.0 0.00 0.00 0.00 72 1026.6
20260901020650 25 238 0.0 0.0 0.00 0.00 0.00 71 1026.6
20260901020151 25 238 0.0 0.0 0.00 0.00 0.00 71 1026.5
20260901015649 25 238 0.0 0.0 0.00 0.00 0.00 70 1026.5
20260901015145 25 238 0.0 0.0 0.00 0.00 0.00 69 1026.4
20260901014644 25 238 0.0 0.0 0.00 0.00 0.00 68 1026.4
20260901014125 25 238 0.0 0.0 0.00 0.00 0.00 68 1026.4
20260901013621 25 238 0.0 0.0 0.00 0.00 0.00 67 1026.3
20260901013111 25 238 0.0 0.0 0.00 0.00 0.00 66 1026.2
20260901012607 26 238 0.0 0.0 0.00 0.00 0.00 66 1026.1
20260901012105 26 238 0.0 0.0 0.00 0.00 0.00 65 1026.1
20260901011537 26 238 0.0 0.0 0.00 0.00 0.00 65 1026.1
20260901011033 26 238 0.0 0.0 0.00 0.00 0.00 64 1026.0
20260901010507 26 238 0.0 0.0 0.00 0.00 0.00 64 1026.0
20260901010229 26 238 0.0 0.0 0.00 0.00 0.00 64 1026.0
20260901005432 27 238 0.0 0.0 0.00 0.00 0.00 63 1026.0
20260901005153 27 238 0.0 0.0 0.00 0.00 0.00 63 1026.1
20260901004417 27 238 0.0 0.0 0.00 0.00 0.00 63 1025.9
20260901003848 27 238 0.0 0.0 0.00 0.00 0.00 62 1025.9
20260901003613 27 236 0.0 0.0 0.00 0.00 0.00 61 1025.9
20260901002831 28 259 0.0 0.0 0.00 0.00 0.00 61 1025.8
20260901002327 28 259 0.0 0.0 0.00 0.00 0.00 60 1025.8
20260901001825 28 259 0.0 0.0 0.00 0.00 0.00 60 1025.8
20260901001300 28 259 0.0 0.0 0.00 0.00 0.00 59 1025.9
20260901001002 28 259 0.0 0.0 0.00 0.00 0.00 58 1025.9
20260901000445 29 259 0.0 0.0 0.00 0.00 0.00 58 1025.8
20260831235700 29 259 0.0 0.0 0.00 0.00 0.00 57 1025.7
20260831235156 30 260 0.0 0.0 0.00 0.00 0.00 56 1025.7
20260831234924 30 234 0.0 0.0 0.00 0.00 0.00 54 1025.7
20260831234356 30 234 0.0 0.0 0.00 0.00 0.00 52 1025.7
20260831233623 31 234 0.0 0.0 0.00 0.00 0.00 50 1025.7
20260831233111 31 234 0.0 0.0 0.00 0.00 0.00 48 1025.8
20260831232609 31 227 0.0 0.0 0.00 0.00 0.00 47 1025.7
20260831232108 31 91 0.0 0.0 0.00 0.00 0.00 45 1025.7
20260831231539 32 91 0.0 0.0 0.00 0.00 0.00 43 1025.7
20260831231035 32 91 0.0 0.0 0.00 0.00 0.00 44 1025.6
20260831230527 32 240 0.0 0.0 0.00 0.00 0.00 43 1025.6
20260831230025 33 240 0.0 0.0 0.00 0.00 0.00 42 1025.6
20260831225530 33 228 0.0 0.0 0.00 0.00 0.00 42 1025.6
20260831225001 33 228 0.0 0.0 0.00 0.00 0.00 41 1025.6
20260831224500 33 265 0.0 0.0 0.00 0.00 0.00 41 1025.5
20260831224202 34 283 0.0 0.0 0.00 0.00 0.00 40 1025.5
20260831223430 34 284 0.0 0.0 0.00 0.00 0.00 38 1025.6
20260831223137 35 284 0.0 0.0 0.00 0.00 0.00 37 1025.5
20260831222404 35 229 0.0 0.0 0.00 0.00 0.00 38 1025.4
20260831221901 35 279 0.0 0.0 0.00 0.00 0.00 40 1025.4
20260831221333 35 279 0.0 0.0 0.00 0.00 0.00 38 1025.4
20260831220832 35 280 0.0 0.0 0.00 0.00 0.00 37 1025.3
20260831220534 35 263 0.0 0.0 0.00 0.00 0.00 36 1025.2
20260831215802 35 223 0.0 0.0 0.00 0.00 0.00 40 1025.2
20260831215243 35 223 0.0 0.0 0.00 0.00 0.00 37 1025.3
20260831214715 35 221 0.0 0.0 0.00 0.00 0.00 37 1025.2
20260831214211 35 221 0.0 0.0 0.00 0.00 0.00 36 1025.2
20260831213709 36 278 0.0 0.0 0.00 0.00 0.00 36 1025.1
20260831213207 36 231 0.0 0.0 0.00 0.00 0.00 35 1025.1
20260831212649 36 231 0.0 1.6 0.00 0.00 0.00 36 1025.1
20260831212153 36 231 0.0 1.6 0.00 0.00 0.00 34 1025.1
20260831211630 36 287 0.0 0.0 0.00 0.00 0.00 36 1025.0
20260831211130 36 180 0.0 0.0 0.00 0.00 0.00 34 1025.0
20260831210904 36 178 0.0 0.0 0.00 0.00 0.00 34 1025.0
20260831210629 36 178 0.0 0.0 0.00 0.00 0.00 35 1025.0
20260831205856 36 229 0.0 0.0 0.00 0.00 0.00 38 1025.0
20260831205129 36 236 0.0 0.0 0.00 0.00 0.00 38 1025.0
20260831204602 36 237 0.0 0.0 0.00 0.00 0.00 41 1024.9
20260831204057 36 260 0.0 0.0 0.00 0.00 0.00 42 1024.9
20260831203530 35 260 0.0 0.0 0.00 0.00 0.00 42 1024.9
20260831203010 35 273 0.0 0.0 0.00 0.00 0.00 39 1025.0
20260831202507 36 271 0.0 0.0 0.00 0.00 0.00 41 1025.0
20260831202240 35 192 0.0 0.0 0.00 0.00 0.00 42 1025.0
20260831202110 36 254 0.0 0.0 0.00 0.00 0.00 41 1025.0
20260831201002 35 240 0.0 0.0 0.00 0.00 0.00 43 1025.0
20260831200437 35 223 0.0 0.0 0.00 0.00 0.00 42 1025.0
20260831195909 35 211 0.0 0.0 0.00 0.00 0.00 42 1025.0
20260831195408 35 211 0.0 0.0 0.00 0.00 0.00 42 1024.9
20260831194839 35 210 0.0 0.0 0.00 0.00 0.00 40 1024.9
20260831194338 35 257 0.0 0.0 0.00 0.00 0.00 41 1024.9
20260831193811 35 200 0.0 0.0 0.00 0.00 0.00 43 1024.9
20260831193308 35 221 0.0 0.0 0.00 0.00 0.00 42 1024.9
20260831193038 35 221 0.0 0.0 0.00 0.00 0.00 42 1024.9
20260831192306 35 221 0.0 0.0 0.00 0.00 0.00 42 1024.8
20260831191759 35 221 0.0 0.0 0.00 0.00 0.00 43 1024.8
20260831191304 35 205 0.0 0.0 0.00 0.00 0.00 43 1024.8
20260831190738 35 218 0.0 0.0 0.00 0.00 0.00 45 1024.8
20260831190214 35 209 0.0 0.0 0.00 0.00 0.00 46 1024.9
20260831185919 35 260 0.0 0.0 0.00 0.00 0.00 43 1024.9
20260831185147 34 259 0.0 0.0 0.00 0.00 0.00 47 1024.8
20260831184644 34 259 0.0 0.0 0.00 0.00 0.00 47 1024.8
20260831184144 34 269 0.0 0.0 0.00 0.00 0.00 48 1024.8
20260831183633 33 278 0.0 0.0 0.00 0.00 0.00 47 1024.6
20260831183131 33 249 0.0 0.0 0.00 0.00 0.00 48 1024.6
20260831182628 33 319 0.0 0.0 0.00 0.00 0.00 51 1024.8
20260831182113 33 320 0.0 0.0 0.00 0.00 0.00 54 1024.6
20260831181614 33 0 0.0 0.0 0.00 0.00 0.00 54 1024.6
20260831181050 33 9 0.0 0.0 0.00 0.00 0.00 55 1024.8
20260831180548 33 46 0.0 0.0 0.00 0.00 0.00 54 1024.8
20260831180047 32 80 0.0 0.0 0.00 0.00 0.00 55 1024.8
20260831175551 32 61 0.0 0.0 0.00 0.00 0.00 55 1024.9
20260831175028 32 59 0.0 0.0 0.00 0.00 0.00 58 1025.0
20260831174527 32 59 0.0 0.0 0.00 0.00 0.00 57 1025.1
20260831174005 31 229 0.0 0.0 0.00 0.00 0.00 61 1025.1
20260831173440 31 229 0.0 0.0 0.00 0.00 0.00 65 1025.1
20260831172939 31 229 0.0 0.0 0.00 0.00 0.00 66 1025.1
20260831172441 31 232 0.0 0.0 0.00 0.00 0.00 67 1025.2
20260831171919 31 217 0.0 0.0 0.00 0.00 0.00 68 1025.1
20260831171418 30 217 0.0 0.0 0.00 0.00 0.00 68 1025.1
20260831170854 30 211 0.0 0.0 0.00 0.00 0.00 69 1025.2
20260831170327 30 210 0.0 0.0 0.00 0.00 0.00 69 1025.2
20260831165812 30 262 0.0 0.0 0.00 0.00 0.00 68 1025.1
20260831165311 30 181 0.0 0.0 0.00 0.00 0.00 69 1025.1
20260831164812 30 133 0.0 0.0 0.00 0.00 0.00 69 1025.1
20260831164520 30 132 0.0 0.0 0.00 0.00 0.00 69 1025.0
20260831163724 30 143 0.0 0.0 0.00 0.00 0.00 69 1024.9
20260831163205 30 78 0.0 0.0 0.00 0.00 0.00 69 1024.9
20260831162639 30 248 0.0 0.0 0.00 0.00 0.00 70 1024.8
20260831162138 29 248 0.0 0.0 0.00 0.00 0.00 70 1024.8
20260831161618 29 236 0.0 0.0 0.00 0.00 0.00 72 1024.6